CZ-4B DEB, 49046

Orbit data source: Space-Track

CZ-4B DEB, 49046 is space debris in SSO originally from a launch on Sun, 27 Sep 2020 UTC launched from the Taiyaun Space Center, China (TSC). Debris objects in space refer to the collection of defunct objects orbiting the Earth. Examples of debris include non-operational satellites, rocket bodies, and fragments generated from explosions, collisions, or faulty payload assembly.

Loading next visibility...
Identifier
49046, 2020-067H
Orbit
SSO
Country
Flag of CNCN / PRC
Related business
Manufacturer
SAST
Mission
Spacecraft
Bus & Motor
Unknown
Mass
Unknown
Launch date (UTC)
2020-09-27 (5 years ago)
Launch vehicle
Unknown
Launch site
Taiyaun Space Center, China (TSC)
Object type
Payload
Rocket body
Debris
Shape & HBR
Unknown
Radar Cross Section
Small (<0.1 m²)

Expand to show TLE details & history
Last TLE update: 2 days ago

TLE from 2 days ago
0 CZ-4B DEB
1 49046U 20067H   25260.08605263  .00002154  00000-0  32001-3 0  9994
2 49046  97.7776 302.7343 0031788  99.9413 260.5387 14.75651401243589
Epoch: 2025-09-17T02:03Z
TLE epoch observation values (Epoch: 2025-09-17T02:03:54.947Z)
Latitude
-0.00004°
Longitude
-84.5117°
Altitude
649.842 km
Speed
7.531 km/s
True Right ascension
20h 10m 56s
True Declination
0° 00' 00"
Sunlit
Object was in full shadow at epoch
Visualization orbit readout
Latitude
Unknown
Longitude
Unknown
Altitude
Unknown
Speed
Unknown
Apparent Right ascension
Unknown
Apparent Declination
Unknown
Sunlit
N/A
Visualization observer readout
Local Sidereal Time
11:17:38
Azimuth
Unknown
Elevation
Unknown
Doppler factor
Unknown
Orbital elements
Apogee altitude
662.435 km
Perigee altitude
617.816 km
Semi-major axis
7,018.262 km
Eccentricity
0.00318
Inclination
97.7776°
RAAN
302.7343°
Arg. of periapsis
99.9413°
True anomaly
260.17963°
Mean anomaly
260.5387°
Eccentric anomaly
260.35914°
Mean motion
3.69147 °/min
Orbital period
97.52 mins
BSTAR
0.00032001
Loading maneuver chart data...
Computing Atmospheric mass density...
Loading historical data...
Loading historical data...
Loading historical data...
Loading historical data...
Loading historical data...
Loading historical data...
Loading historical data...

Documentation

Showing up to 5 results
|